Location: Wildcat Hills Observatory
(41.6350°N, 103.6812°W)
Time: 16:00:04
(UTC-06:00)

Daily predictions for brighter satellites

Satellite Brightness Start Highest point End
(mag) Time Altitude Azimuth Time Altitude Azimuth Time Altitude Azimuth
Cosmos 332 Rocket 3.9 21:01:44 10° NNW 21:06:35 82° WSW 21:11:25 10° SSE
ATLAS CENTAUR R/B 1.6 21:02:16 10° NW 21:06:53 82° WSW 21:11:04 10° SSE
DELTA 2 R/B (1) 3.6 21:02:39 10° W 21:08:12 73° S 21:13:44 10° E
Cosmos 1515 Rocket 4.0 21:07:15 10° N 21:11:34 47° ENE 21:15:50 10° SSE
YAOGAN 6 4.2 21:09:08 10° ESE 21:12:00 22° ENE 21:14:50 10° NNE
Envisat 3.1 21:09:02 10° SSE 21:14:02 62° ENE 21:19:04 10° N
Cosmos 1553 Rocket 4.1 21:11:45 10° N 21:18:12 79° E 21:24:32 10° S
Cosmos 2266 Rocket 4.5 21:12:40 10° SSE 21:18:34 43° E 21:24:24 10° NNE
ARGOS 4.3 21:15:00 10° ESE 21:19:31 28° ENE 21:24:03 10° N
Cosmos 405 4.2 21:17:43 10° NNE 21:20:55 28° ENE 21:23:51 11° SE
Cosmos 1441 Rocket 3.2 21:19:36 10° S 21:23:20 60° E 21:27:04 10° NNE
ERS-1 Rocket 3.5 21:21:26 10° S 21:26:23 59° WSW 21:31:23 10° NNW
Nimbus 7 Rocket 4.4 21:21:25 10° NNE 21:27:17 74° ESE 21:33:08 10° S
Cosmos 1777 Rocket 4.1 21:24:25 10° S 21:29:33 55° ESE 21:34:41 10° NNE
Cosmos 2292 4.1 21:26:59 10° N 21:30:02 89° W 21:33:08 10° S
Cosmos 1939 Rocket 3.1 21:26:29 10° S 21:30:27 71° WSW 21:34:23 10° NNW
CZ-2C R/B 2.4 21:31:53 10° SSW 21:33:18 20° W 21:34:46 10° NW
H-2A R/B 3.7 21:31:57 10° ESE 21:35:47 21° ENE 21:39:40 10° NNE
Cosmos 2322 Rocket 2.4 21:31:04 10° NNW 21:36:40 69° WSW 21:42:12 10° SSE
Cosmos 1437 3.9 21:35:39 15° SE 21:37:42 26° E 21:40:30 10° NE
Cosmos 1726 4.3 21:38:21 10° NE 21:40:25 14° ENE 21:42:11 11° E
Cosmos 1908 3.3 21:36:50 10° N 21:40:42 62° E 21:44:00 14° SSE
SPOT 5 2.7 21:36:38 10° SSE 21:41:06 89° E 21:45:51 10° NNW
Cosmos 2151 3.5 21:38:22 11° SSE 21:42:03 40° E 21:46:01 10° NNE
Cosmos 371 Rocket 3.9 21:38:54 10° NNW 21:43:35 53° WSW 21:48:15 10° S
SL-16 R/B 2.6 21:39:38 10° NNW 21:45:15 63° WSW 21:50:48 10° S
Cosmos 1151 Rocket 3.1 21:41:27 10° N 21:45:43 64° E 21:49:18 14° SSE
Cosmos 1980 Rocket 4.3 21:42:55 10° NW 21:47:08 22° W 21:51:22 10° SSW
SPOT 1/Viking Rocket 3.8 21:43:04 14° SSE 21:47:22 56° ENE 21:52:25 10° N
Meteor 2-2 Rocket 4.4 21:42:06 10° N 21:48:06 89° WSW 21:54:08 10° S
Cosmos 2360 Rocket 2.5 21:42:40 10° NNW 21:48:13 55° ENE 21:52:34 17° SE
OE (NEXTSAT) 4.4 21:47:41 10° WNW 21:51:16 88° NNE 21:53:48 18° ESE
NOSS 3-1 (C) 4.3 21:50:32 12° SSE 21:54:44 27° ESE 21:59:53 10° NE
Cosmos 1680 Rocket 3.8 21:51:19 10° NNW 21:56:29 57° ENE 22:00:10 19° SE
H-2A R/B 3.6 21:52:39 10° SSW 21:56:47 35° W 22:00:58 10° NNW
Cosmos 1707 Rocket 4.5 21:54:11 10° NNE 21:58:08 32° ENE 22:00:25 20° SE
Cosmos 923 Rocket 4.0 21:54:09 10° NNW 21:59:23 78° ENE 22:03:12 19° SSE
Cosmos 1437 Rocket 3.2 21:56:42 10° NNW 22:00:27 58° W 22:03:44 13° S
Cosmos 1674 2.9 22:01:37 10° SSW 22:05:25 70° W 22:09:16 10° N
PSLV R/B 4.5 22:04:08 12° SSW 22:06:40 36° W 22:09:33 10° NNW
CZ-4C R/B 3.7 22:10:18 26° SE 22:11:45 41° ENE 22:15:02 10° N
Cosmos 1300 3.2 22:09:03 10° N 22:12:45 43° ENE 22:14:20 28° SE
Cosmos 2227 Rocket 4.0 22:12:57 12° E 22:13:16 12° E 22:15:25 10° ENE
Cosmos 1833 4.2 22:07:38 10° SSW 22:13:22 87° WNW 22:19:05 10° NNE
CZ-4B R/B 3.6 22:09:04 10° NNE 22:14:22 86° WNW 22:19:36 10° SSW
Cosmos 2333 Rocket 4.0 22:11:00 10° N 22:15:11 20° NE 22:19:13 10° E
SL-08 RB Rocket 3.6 22:14:41 24° SSE 22:17:21 74° ENE 22:21:51 10° N
Cosmos 2058 2.9 22:16:00 23° S 22:18:25 64° E 22:22:29 10° NNE
Cosmos 1626 4.5 22:19:14 11° E 22:19:14 11° E 22:20:02 10° ENE
Cosmos 1328 3.7 22:16:12 17° S 22:19:11 86° W 22:23:10 10° N
Meteor 1-4 Rocket 3.9 22:18:40 10° NNE 22:21:56 27° ENE 22:22:56 24° E
COSMOS 2428 3.0 22:21:42 10° NNW 22:27:18 56° ENE 22:30:25 26° SE
DELTA 2 DEB (DPAF) 4.1 22:27:10 29° SSE 22:29:27 77° ENE 22:33:57 10° N
Cosmos 2242 Rocket 4.2 22:25:38 10° N 22:29:53 42° ENE 22:31:31 30° SE
Cosmos 304 Rocket 4.0 22:26:11 10° NNW 22:30:58 67° WSW 22:33:39 26° S
Landsat 7 3.8 22:30:39 29° SSE 22:33:05 77° ENE 22:37:51 10° N
Cosmos 1455 3.9 22:33:01 10° NNE 22:35:47 19° ENE 22:36:20 18° E
USA 32 4.2 22:31:24 10° N 22:36:35 56° E 22:38:57 31° SSE
USA 229 DEB 4.3 22:29:49 10° SW 22:36:38 59° NW 22:43:34 10° NNE
FALCON 9 R/B 4.0 22:09:35 10° WSW 22:36:40 60° S 22:42:42 16° ESE
USA 229 4.3 22:29:54 10° SW 22:36:43 59° NW 22:43:40 10° NNE
IGS 5A 3.8 22:36:42 34° SE 22:38:07 51° ENE 22:42:11 10° N
Spot 4 4.3 22:36:42 30° SE 22:38:44 48° ENE 22:43:24 10° N
Cosmos 2297 Rocket 3.9 22:41:00 15° E 22:41:00 15° E 22:43:59 10° ENE
USA 245 4.4 22:42:13 19° SW 22:43:06 22° W 22:45:13 10° NW
SeaSat 1 3.9 22:41:22 17° E 22:44:02 27° NE 22:48:08 10° N
Terra 1.8 22:47:00 36° SSE 22:48:57 77° ENE 22:53:43 10° N
Cosmos 2237 4.2 22:43:17 10° NNW 22:49:02 87° ENE 22:51:43 33° SSE
SL-14 R/B 3.3 22:49:06 35° SSW 22:50:40 80° W 22:54:39 10° N
Cosmos 2219 Rocket 2.8 22:46:32 10° NNW 22:51:53 44° ENE 22:54:24 28° ESE
Cosmos 1703 3.4 22:51:28 49° SE 22:52:07 56° E 22:55:58 10° NNE
Cosmos 292 Rocket 4.2 22:48:56 10° N 22:53:35 51° ENE 22:55:08 36° ESE
DELTA 2 R/B (1) 3.7 22:49:03 10° W 22:54:27 53° SSW 22:56:17 37° SE
NOSS 3-1 (A) 3.4 22:52:30 23° S 22:56:07 59° ESE 23:02:28 10° NE
Cosmos 1862 Rocket 4.3 22:52:10 10° N 22:56:13 36° ENE 22:57:03 33° ESE
CARTOSAT-1 3.5 22:57:29 42° S 22:58:54 78° W 23:03:14 10° NNW
Cosmos 2298 Rocket 4.0 22:56:04 25° SSW 22:59:17 87° ESE 23:04:38 10° NNE
ARGOS 4.2 22:56:07 19° SSW 22:59:34 40° W 23:04:38 10° NNW
Cosmos 1271 Rocket 2.6 22:57:16 10° N 23:01:05 79° E 23:01:41 61° SSE
SL-23 DEB 3.8 22:58:30 10° WNW 23:02:40 53° SW 23:02:50 52° SSW
Cosmos 2219 3.7 22:59:26 10° SW 23:05:07 62° WNW 23:10:51 10° NNE
Cosmos 1633 Rocket 3.3 23:03:27 32° SSW 23:05:22 66° W 23:09:45 10° N
Sich 1 3.5 23:05:01 29° SSW 23:07:08 59° W 23:11:30 10° N
Cosmos 2333 4.2 23:05:17 10° NNW 23:11:02 84° WSW 23:13:11 41° SSE
Spot 2 4.4 23:08:13 10° NNE 23:13:24 85° WNW 23:15:34 35° SSW
H-2A R/B 2.5 23:12:25 32° SSW 23:14:43 56° W 23:20:03 10° NNW
Cosmos 1726 3.3 23:12:28 10° NNW 23:15:58 36° W 23:16:52 31° SW
Cosmos 1937 Rocket 3.4 23:15:06 41° S 23:16:58 77° ESE 23:22:12 10° NNE
Cosmos 2237 Rocket 2.8 23:11:58 10° NNW 23:17:30 48° ENE 23:19:39 33° ESE
Iridium 2 4.0 23:17:36 51° SW 23:18:16 63° W 23:22:06 10° N
ATLAS 2AS CENTAUR R/B 3.4 23:16:57 34° SE 23:18:55 39° ESE 23:26:09 10° NE
Cosmos 2082 4.1 23:18:01 40° SE 23:19:02 44° ESE 23:24:27 10° NE
SAR-Lupe-2 4.3 23:22:34 41° WSW 23:22:52 42° W 23:26:18 10° NNW
ALOS 2 4.3 23:23:07 19° E 23:24:02 20° ENE 23:27:16 10° NNE
Nadezhda 1 Rocket 3.9 23:23:52 10° N 23:29:57 79° W 23:32:17 40° S
Cosmos 2360 Rocket 4.0 23:27:39 10° NW 23:31:45 21° W 23:34:21 15° SW
Cosmos 990 Rocket 3.8 23:33:11 53° S 23:34:23 78° ESE 23:39:33 10° NNE
Cosmos 1745 Rocket 4.4 23:36:53 26° SSW 23:40:19 57° W 23:46:26 10° N
ATLAS 3B R/B 3.5 23:37:40 10° NNW 23:44:23 43° NE 23:48:24 22° ESE
Lacrosse 4 Rocket 3.4 23:40:55 10° N 23:44:25 22° NE 23:45:57 19° E
NOSS 3-1 (C) 4.1 23:39:19 10° SW 23:45:06 53° NW 23:51:33 10° NNE
Cosmos 2221 Rocket 4.0 23:43:56 10° N 23:48:24 50° E 23:48:42 49° E
Cosmos 1709 Rocket 3.9 23:47:08 48° SSE 23:48:55 77° E 23:55:02 10° N
CZ-4B R/B 3.2 23:51:18 25° ENE 23:51:18 25° ENE 23:53:51 10° NNE
Cosmos 1626 2.9 23:53:56 46° W 23:54:01 46° W 23:57:40 10° N
Cosmos 1869 3.6 23:50:46 10° NNW 23:54:45 57° W 23:54:45 57° W
